Domov               UVHVVR             MKGP            O straneh              
ZDRAVSTVENO VARSTVO RASTLIN
  MREŽA AGROMET. POSTAJ
 ► PROGNOSTIČNA OBVESTILA
AGROMETEOROLOŠKI PODATKI -
ARSO
OBVLADOVANJE TVEGANJ ZARADI
NEUGODNIH VREMENSKIH RAZMER
  ► NARAVNE NESREČE
  ► SUŠA/MOČA
  ► NAMAKANJE
  ► ŽLED (gozdarstvo)
KARTOGRAFSKI PRIKAZI
SPLETNE POVEZAVE
PROJEKTI IN PUBLIKACIJE

AGROMETEOROLOŠKA MREŽA: VREMENSKE POSTAJE IN FENOLOŠKA OPAZOVANJA

Pregled podatkov za lokacijo Kozana, meteorološka postaja 863701

Pregled senzorjev na lokaciji

ID Ime Zadnja
vrednost
Datum
zadnje
spremembe
Tip
senzorja
4188 Omočenost lista (U) 0 U 23.3.2019 00:29 A730WET
4189 Padavine (mm) 0 mm 23.3.2019 00:29 Rain-O-Matic
4187 Relativna vlaga 2 m (% RH) 34,25 % RH 23.3.2019 00:29 50YA
4186 Temperatura 2 m (°C) 14,39 °C 23.3.2019 00:29 50YA

Pregled podatkov zadnjih 24 ur

Zap.
št.
Datum in čas Kozana
Omočenost
lista
Padavine Relativna
vlaga
2
m
Temperatura
2
m
1 22.3.2019 23:30
2 22.3.2019 23:00
3 22.3.2019 22:30
4 22.3.2019 22:00 0 0 31,9 15,5
5 22.3.2019 21:30 0 0 30,9 15,9
6 22.3.2019 21:00 0 0 30,4 16,1
7 22.3.2019 20:30 0 0 29,9 16,3
8 22.3.2019 20:00 0 0 29,9 16,4
9 22.3.2019 19:30 0 0 31,5 15,7
10 22.3.2019 19:00 0 0 30,1 16,4
11 22.3.2019 18:30 0 0 29,3 17
12 22.3.2019 18:00 0 0 26,4 18
13 22.3.2019 17:30 0 0 22,3 19
14 22.3.2019 17:00 0 0 18,9 20,1
15 22.3.2019 16:30 0 0 16,6 20,5
16 22.3.2019 16:00 0 0 18,4 20,8
17 22.3.2019 15:30 0 0 19,9 21,1
18 22.3.2019 15:00 0 0 20,7 21,5
19 22.3.2019 14:30 0 0 21,1 21,3
20 22.3.2019 14:00 0 0 23,3 21
21 22.3.2019 13:30 0 0 24 20,6
22 22.3.2019 13:00 0 0 24,7 20
23 22.3.2019 12:30 0 0 26,7 19,6
24 22.3.2019 12:00 0 0 28,3 19
25 22.3.2019 11:30 0 0 27 17,9
26 22.3.2019 11:00 0 0 27,6 17,1
27 22.3.2019 10:30 0 0 29,2 16
28 22.3.2019 10:00 0 0 29,4 15,6
29 22.3.2019 09:30 0 0 31,2 14,4
30 22.3.2019 09:00 0 0 34,5 13,5
31 22.3.2019 08:30 0 0 36,6 12,5
32 22.3.2019 08:00 0 0 37 11,6
33 22.3.2019 07:30 0 0 38,8 10,5
34 22.3.2019 07:00 0 0 39,3 9,9
35 22.3.2019 06:30 0 0 40 9,4
36 22.3.2019 06:00 0 0 39,4 9,6
37 22.3.2019 05:30 0 0 39,8 9,6
38 22.3.2019 05:00 0 0 39,9 9,7
39 22.3.2019 04:30 0 0 40,9 9,7
40 22.3.2019 04:00 0 0 40,2 10
41 22.3.2019 03:30 0 0 40,2 10
42 22.3.2019 03:00 0 0 40,6 10
43 22.3.2019 02:30 0 0 40,7 10,1
44 22.3.2019 02:00 0 0 41,6 10,1
45 22.3.2019 01:30 0 0 41,7 10,1
46 22.3.2019 01:00 0 0 42 10,1
47 22.3.2019 00:30 0 0 41,5 10,4
48 22.3.2019 00:00 0 0 41,2 10,7
© 2011 Ministrstvo za kmetijstvo, gozdarstvo in prehrano. Vse pravice pridržane.